TimeEST,TemperatureF,Dew PointF,Humidity,Sea Level PressureIn,VisibilityMPH,Wind Direction,Wind SpeedMPH,Gust SpeedMPH,PrecipitationIn,Events,Conditions,WindDirDegrees,DateUTC
12:51 AM,34.0,30.9,89,30.22,6.0,NNE,10.4,-,0.05,Rain,Rain,20,2013-01-16 05:51:00
1:51 AM,33.1,30.9,92,30.18,6.0,NNE,12.7,-,0.07,Rain,Light Rain,20,2013-01-16 06:51:00
2:51 AM,33.1,30.9,92,30.17,5.0,NNE,10.4,-,0.06,Rain,Rain,20,2013-01-16 07:51:00
2:58 AM,33.8,30.2,87,30.15,4.0,NNE,11.5,-,0.02,Rain,Rain,20,2013-01-16 07:58:00
3:51 AM,33.8,32.0,93,30.13,4.0,North,11.5,-,N/A,Rain,Rain,360,2013-01-16 08:51:00
4:30 AM,32.0,32.0,100,30.11,3.0,NNE,8.1,-,0.11,Rain,Rain,20,2013-01-16 09:30:00
4:48 AM,32.0,32.0,100,30.12,4.0,North,8.1,-,N/A,Rain,Rain,10,2013-01-16 09:48:00
4:51 AM,32.0,32.0,100,30.12,4.0,NNE,6.9,-,0.15,Rain,Rain,20,2013-01-16 09:51:00
5:51 AM,32.0,32.0,100,30.09,4.0,NNE,5.8,-,0.09,Rain,Rain,20,2013-01-16 10:51:00
6:12 AM,33.8,32.0,93,30.07,4.0,North,5.8,-,0.03,Rain,Light Rain,10,2013-01-16 11:12:00
6:51 AM,33.8,32.0,93,30.07,4.0,North,6.9,-,N/A,Rain,Light Rain,10,2013-01-16 11:51:00
7:41 AM,33.8,32.0,93,30.05,2.0,North,6.9,-,0.02,,Light Drizzle,10,2013-01-16 12:41:00
7:51 AM,33.1,32.0,96,30.05,2.0,NNE,8.1,-,0.03,,Light Drizzle,30,2013-01-16 12:51:00
8:09 AM,33.8,32.0,93,30.04,2.0,North,8.1,-,0.02,Rain,Light Rain,10,2013-01-16 13:09:00
8:39 AM,33.8,32.0,93,30.02,3.0,NNE,8.1,-,0.02,Rain,Light Rain,30,2013-01-16 13:39:00
8:51 AM,33.1,32.0,96,30.00,3.0,NE,6.9,-,0.02,Rain,Light Rain,40,2013-01-16 13:51:00
9:51 AM,34.0,33.1,96,29.98,3.0,NNW,6.9,-,0.00,Rain,Light Rain,340,2013-01-16 14:51:00
10:51 AM,34.0,32.0,92,29.99,3.0,North,5.8,-,0.01,Rain,Light Rain,350,2013-01-16 15:51:00
11:51 AM,34.0,33.1,96,29.96,3.0,NNW,5.8,-,0.02,Rain,Light Rain,330,2013-01-16 16:51:00
12:51 PM,34.0,33.1,96,29.89,3.0,NNE,5.8,-,0.00,Rain,Light Rain,30,2013-01-16 17:51:00
1:51 PM,35.1,33.1,92,29.80,3.0,ENE,5.8,-,0.01,,Overcast,70,2013-01-16 18:51:00
2:20 PM,35.6,33.8,93,29.92,3.0,NW,11.5,18.4,N/A,,Overcast,310,2013-01-16 19:20:00
2:51 PM,35.1,34.0,96,29.89,3.0,North,3.5,-,N/A,,Overcast,360,2013-01-16 19:51:00
3:19 PM,35.6,33.8,93,29.90,3.0,Variable,5.8,-,N/A,,Overcast,0,2013-01-16 20:19:00
3:51 PM,36.0,34.0,93,29.91,6.0,WNW,6.9,-,N/A,,Overcast,300,2013-01-16 20:51:00
4:51 PM,35.1,34.0,96,29.91,6.0,Variable,5.8,-,N/A,,Overcast,0,2013-01-16 21:51:00
5:22 PM,35.6,33.8,93,29.91,6.0,SW,6.9,-,N/A,,Overcast,230,2013-01-16 22:22:00
5:51 PM,36.0,34.0,93,29.92,6.0,SW,8.1,-,N/A,,Overcast,220,2013-01-16 22:51:00
6:51 PM,36.0,34.0,93,29.91,7.0,SSW,10.4,-,N/A,,Overcast,210,2013-01-16 23:51:00
7:32 PM,35.6,33.8,93,29.92,7.0,SW,10.4,-,N/A,,Overcast,230,2013-01-17 00:32:00
7:51 PM,36.0,34.0,93,29.92,8.0,WSW,12.7,-,N/A,,Overcast,240,2013-01-17 00:51:00
8:46 PM,37.4,33.8,87,29.93,9.0,WSW,11.5,-,N/A,,Overcast,240,2013-01-17 01:46:00
8:51 PM,37.0,34.0,89,29.93,9.0,WSW,12.7,-,N/A,,Overcast,250,2013-01-17 01:51:00
9:08 PM,37.4,33.8,87,29.92,9.0,WSW,10.4,-,N/A,,Overcast,250,2013-01-17 02:08:00
9:51 PM,37.0,34.0,89,29.92,10.0,WSW,9.2,-,N/A,,Mostly Cloudy,250,2013-01-17 02:51:00
10:51 PM,36.0,34.0,93,29.92,10.0,SW,9.2,-,N/A,,Mostly Cloudy,230,2013-01-17 03:51:00
11:51 PM,37.0,34.0,89,29.92,10.0,WSW,6.9,-,N/A,,Mostly Cloudy,250,2013-01-17 04:51:00